Find Starlink 11617

NORAD ID: 63184 Int'l Des: 2025-048 Owner: SPXS Country: US Constellation: starlink operational
別名: STARLINK-11617 [DTC] celestrak
LEOCIRCULAR

現在のビュー

3D地球を読み込み中...

About Starlink 11617

Starlink 11617 (NORAD 63184) is a starlink constellation satellite (v2 mini d2c) launched Mar 13, 2025 by SPXS of US. It operates in LEO, CIRCULAR orbit with a mass of 960.00 kg.

次回通過

Passes for default location (London). Set your location on the main map for personalized predictions.

高度履歴

Loading altitude history...

軌道要素

1 63184U 25048B 26235.50100138 .00176750 00000-0 13501-2 0 9995
2 63184 42.9882 34.6332 0003415 165.4037 194.6930 15.70866496 84755
Epoch: Aug 23, 2026 • Age: 13 hours

現在のステータス

高度 358.0 km
遠地点 / 近地点 N/A
速度 7.70 km/s
衛星直下点 -18.53°S, 116.69°W
打ち上げ日 Mar 13, 2025
運用期間 1.4 years
タイプ internet

技術仕様

分類 Payload
質量 960.00 kg
乾燥質量 910.00 kg
総質量 960.00 kg
長さ 0.30 m
直径 4.10 m
スパン 29.00 m
形状 Box + pan
製造者 SPXS
バスタイプ Starlink V2MD
フェーズステータス In Orbit
所有者/国 SPXS/US

Most Searched